Home   Weather   Murmansk   Past weeks
Flag for Russia

Past Weather in Murmansk, Russia — Yesterday and Last 2 Weeks

Now
28 °F

Passing clouds.


Feels Like: 28 °F
Forecast: 34 / 25 °F
Wind: 1 mph from Southwest

Location: Murmansk Airport

Current Time: Oct 18, 2019 at 4:56:27 am

Latest Report: Oct 18, 2019 at 4:00 am


Visibility: N/A

Pressure: 29.98 "Hg

Humidity: 80%

Dew Point: 23 °F

Location of MurmanskLocation

Past Weather in Murmansk — Graph

°F

Murmansk Temperature Yesterday

Maximum temperature yesterday: 32 °F (at 1:00 pm)
Minimum temperature yesterday: 25 °F (at 12:00 am)
Average temperature yesterday: 29 °F

High & Low Weather Summary for the Past Weeks

 TemperatureHumidityPressure
High41 °F (Oct 7, 2:00 pm)100% (Oct 3, 4:00 am)30.12 "Hg (Oct 3, 4:00 am)
Low25 °F (Oct 16, 11:30 pm)69% (Oct 17, 5:30 pm)29.27 "Hg (Oct 10, 6:00 am)
Average34 °F90%29.89 "Hg
* Reported Oct 3 3:00 am — Oct 18 3:30 am, Murmansk. Weather by CustomWeather, © 2019

Note: Actual official high and low records may vary slightly from our data, if they occured in-between our weather recording intervals... More about our weather records

Advertising

Murmansk Weather History for the Previous 24 Hours

Scroll right to see more
 ConditionsComfort  
Time TempWeatherWind HumidityBarometerVisibility
3:30 am
Fri, Oct 18
27 °FPassing clouds.3 mph86%29.98 "HgN/A
3:00 am27 °FPassing clouds.3 mph86%29.98 "HgN/A
2:30 am25 °FPassing clouds.1 mph93%29.98 "HgN/A
2:00 am25 °FPassing clouds.1 mph86%29.98 "HgN/A
1:30 am27 °FPassing clouds.1 mph80%30.01 "HgN/A
1:00 am27 °FPassing clouds.1 mph86%30.01 "HgN/A
12:30 am27 °FPassing clouds.1 mph80%30.01 "HgN/A
12:00 am27 °FPassing clouds.3 mph80%30.01 "HgN/A
11:30 pm
Thu, Oct 17
27 °FPassing clouds.3 mph80%30.01 "HgN/A
11:00 pm27 °FPassing clouds.1 mph80%30.01 "HgN/A
10:30 pm28 °FPassing clouds.3 mph80%30.04 "HgN/A
10:00 pm30 °FPassing clouds.3 mph75%30.04 "HgN/A
9:30 pm30 °FPassing clouds.3 mph75%30.04 "HgN/A
9:00 pm30 °FPassing clouds.3 mph69%30.04 "HgN/A
8:30 pm30 °FPassing clouds.6 mph75%30.04 "HgN/A
8:00 pm30 °FPassing clouds.3 mph69%30.07 "HgN/A
7:30 pm30 °FPassing clouds.3 mph69%30.07 "HgN/A
7:00 pm30 °FPassing clouds.3 mph69%30.07 "HgN/A
5:30 pm30 °FPassing clouds.3 mph69%30.07 "HgN/A
5:00 pm30 °FPartly sunny.3 mph75%30.07 "HgN/A
4:30 pm30 °FPartly sunny.1 mph75%30.07 "HgN/A
4:00 pm30 °FPartly sunny.3 mph75%30.07 "HgN/A
3:30 pm32 °FPartly sunny.1 mph75%30.07 "HgN/A
3:00 pm30 °FSnow flurries. Partly sunny.1 mph80%30.09 "Hg6 mi
2:30 pm32 °FPartly sunny.1 mph75%30.09 "HgN/A
2:00 pm32 °FPartly sunny.No wind80%30.09 "HgN/A
1:30 pm32 °FPartly sunny.No wind80%30.09 "HgN/A
1:00 pm32 °FPartly sunny.No wind80%30.09 "HgN/A
12:30 pm30 °FPartly sunny.No wind86%30.09 "HgN/A
12:00 pm30 °FPartly sunny.1 mph93%30.09 "HgN/A
11:30 am30 °FPartly sunny.1 mph93%30.09 "HgN/A
11:00 am30 °FPartly sunny.1 mph93%30.09 "HgN/A
10:30 am28 °FPartly sunny.1 mph100%30.09 "HgN/A
10:00 am28 °FPartly sunny.No wind100%30.09 "HgN/A
9:30 am28 °FPartly sunny.1 mph100%30.09 "HgN/A
9:00 am28 °FPartly sunny.1 mph93%30.09 "HgN/A
8:30 am28 °FPartly sunny.1 mph93%30.09 "HgN/A
8:00 am28 °FPassing clouds.1 mph93%30.07 "HgN/A
7:30 am28 °FPassing clouds.1 mph93%30.07 "HgN/A
7:00 am28 °FPassing clouds.No wind93%30.07 "HgN/A
6:30 am28 °FPassing clouds.No wind93%30.07 "HgN/A
6:00 am27 °FPartly cloudy.1 mph100%30.07 "HgN/A
5:30 am27 °FPartly cloudy.1 mph100%30.07 "HgN/A
5:00 am27 °FPassing clouds.1 mph100%30.09 "HgN/A
4:30 am27 °FPartly cloudy.1 mph100%30.09 "HgN/A
4:00 am27 °FPassing clouds.No wind100%30.09 "Hg5 mi
Weather by CustomWeather, © 2019

See weather overview